Location: Bouchavesnes-Bergen
(49.9859°N, 2.9203°E)
Time: 02:47:54
(UTC+00:00)

ISS - Visible Passes

Search period start: 01 February 2023 00:00
Search period end: 11 February 2023 00:00
Orbit: 412 x 419 km, 51.6° (Epoch: 31 January)

Date Brightness Start Highest point End Pass type
(mag) Time Alt. Az. Time Alt. Az. Time Alt. Az.
01 Feb -3.4 17:29:51 10° WNW 17:33:12 65° SSW 17:36:33 10° ESE visible
01 Feb -1.2 19:07:19 10° W 19:09:27 16° SW 19:10:24 14° SSW visible
02 Feb -1.5 18:18:10 10° W 18:20:56 23° SW 18:23:40 10° SSE visible
03 Feb -2.0 17:29:14 10° W 17:32:19 34° SSW 17:35:25 10° SE visible
04 Feb -0.5 18:18:43 10° WSW 18:19:45 11° SW 18:20:47 10° SSW visible
05 Feb -0.8 17:28:56 10° W 17:31:13 17° SW 17:33:28 10° S visible
